Regional Weather Roundup
Issued by NWS Newport/Morehead, NC

Current Version | Previous Version | Text Only | Print | Product List | Glossary On
Versions: 1 2 3 4 5 6 7 8 9 10 11 12 13 14 15 16 17 18 19 20 21 22 23 24 25 26 27 28 29 30 31 32 33 34 35 36 37 38 39 40 41 42 43 44 45 46 47 48 49 50
000 ASUS42 KMHX 021125 RWRMHX WEATHER ROUNDUP FOR EASTERN NORTH CAROLINA NATIONAL WEATHER SERVICE NEWPORT/MOREHEAD CITY NC 700 AM EDT THU JUL 02 2015 NOTE: "FAIR" INDICATES FEW OR NO CLOUDS BELOW 12,000 FEET WITH NO SIGNIFICANT WEATHER AND/OR OBSTRUCTIONS TO VISIBILITY NCZ015>017-031-032-045>047-102-103-021200- NORTH COAST CITY SKY/WX TMP DP RH WIND PRES REMARKS EDENTON NOT AVBL ELIZABETH CITY SUNNY 75 72 90 S7 29.90S KITTY HAWK NOT AVBL MANTEO NOT AVBL $$ NCZ045>047-081-094-103-104-021200- CENTRAL COAST CITY SKY/WX TMP DP RH WIND PRES REMARKS FRISCO SUNNY 79 75 87 SW8 29.94S SWANQUARTER N/A 79 N/A N/A SW10 29.88S $$ NCZ095-097-098-100-101-021200- SOUTHERN COAST CITY SKY/WX TMP DP RH WIND PRES REMARKS BEAUFORT MOSUNNY 79 76 90 SW15 29.94R CEDAR ISLAND N/A 79 N/A N/A S7G13 29.97S JACKSONVILLE SUNNY 75 70 84 SW7 29.94R PINEY ISLAND MOSUNNY N/A N/A N/A S6 29.93S HAZE WILMINGTON CLEAR 77 71 82 SW9 29.95R $$ NCZ011>013-027>030-043-044-078>080-089-090>093-098-021200- COASTAL PLAIN CITY SKY/WX TMP DP RH WIND PRES REMARKS AHOSKIE PTSUNNY 73 70 93 S3 29.91R CLINTON NOT AVBL ELIZABETHTOWN NOT AVBL GOLDSBORO PTSUNNY 76 72 88 SW9 29.91R GREENVILLE NOT AVBL HAVELOCK CLOUDY 75 72 90 S6 29.95R KENANSVILLE NOT AVBL KINSTON NOT AVBL NEW BERN PTSUNNY 75 71 87 SW5 29.94R RICHLANDS MOSUNNY 73 68 83 SW6 29.95R ROCKY MOUNT CLOUDY 75 72 90 SW6 29.91R FOG WASHINGTON NOT AVBL WHITEVILLE NOT AVBL $$ AMZ130-135-150-152-154-156-158-170-250-252-270-ANZ085-086-088-633-658-670-021200- MARINE OBSERVATIONS STATION/POSITION TIME TEMP WIND PRES WAVE SWELL AIR SEA DIR/SP/G HT/PER HT/PER (UTC) (F) (DEG/KT/KT) (MB) (FT/S) (FT/S) CHESAPEAKE LIGHT 1100 77 210/ 12/ 13 1012.6 64 E VA BEACH 1050 77 77 210/ 10/ 12 1012.2 4/ 8 5/ 8 DUCK 1100 78 64 220/ 8/ 12 1012.0 2 E DUCK 1011 71 N/A 2/ 8 OREGON INLET 1100 80 79 220/ 12/ 15 1012.9 13E OREGON INLT 1100 73 N/A 3/ 8 HATTERAS CG 1100 77 80 210/ 6/ 10 1013.4 DIAMOND BUOY 1050 81 83 230/ 17/ 19 1013.4 5/ 7 3/ 8 CAPE LOOKOUT 1100 80 220/ 8/ 10 1013.9 BEAUFORT LAB 1100 80 80 220/ 6/ 11 1013.3 30 SE NEW RVR IN 1008 80 80 240/ 14/ 17 1014.3 27 SE WRIGHTSVLE 1100 80 240/ 14/ 16 N/A 5 SE WRIGHTSVLE 1008 80 80 240/ 12/ 16 1013.7 225 S CAPE HAT 1050 82 80 230/ 19/ 23 1018.1 6/ 7 2/11 41 SE CHARLESTON 1050 81 82 240/ 16/ 17 1015.0 4/ 6 2/ 8 $$

USA.gov is the U.S. government's official web portal to all federal, state and local government web resources and services.